Sharm El Sheikh, Egypt

3:09 PM EET on August 23, 2017 (GMT +0200)
Sharm El Sheikh

Weather History for HESH - October, 2012

Change the Weather History Date:

Sunday, October 7, 2012

  Actual Average Record
Temperature  
Mean Temperature 86 °F -  
Max Temperature 95 °F 86 °F - ()
Min Temperature 77 °F 71 °F - ()
Cooling Degree Days 21    
Growing Degree Days 36 (Base 50)    
Moisture  
Dew Point 53 °F    
Average Humidity 36    
Maximum Humidity 57    
Minimum Humidity 23    
Precipitation  
Precipitation 0.00 in 0.00 in - ()
Sea Level Pressure  
Sea Level Pressure 29.86 in    
Wind  
Wind Speed 6 mph ()    
Max Wind Speed 13 mph    
Max Gust Speed -    
T = Trace of Precipitation, MM = Missing Value Source: Averaged Metar Reports

Daily Weather History Graph

Daily Weather History Graph

Search for Another Location

Airport or City:

Trip Planner

Search our weather history database for the weather conditions in past years. The results will help you decide how hot, cold, wet, or windy it might be!

Date:

Astronomy

Oct. 07, 2012 Rise Set
Actual Time 5:38 AM EET 5:21 PM EET
Civil Twilight 5:15 AM EET 5:45 PM EET
Nautical Twilight 4:47 AM EET 6:12 PM EET
Astronomical Twilight 4:20 AM EET 6:39 PM EET
Moon 10:33 PM EET (10/7) 11:40 AM EET (10/7)
Length of Visible Light 12h 30m
Length of Day
11h 43m
Waning Gibbous, 58% of the Moon is Illuminated
Oct 7
Waning Gibbous
Oct 8
Last Quarter
Oct 15
New
Oct 22
First Quarter
Oct 29
Full

Hourly Weather History & Observations

Time (EET) Temp. Heat Index Dew Point Humidity Pressure Visibility Wind Dir Wind Speed Gust Speed Precip Events Conditions
12:00 AM 78.8 °F - 53.6 °F 42% 29.86 in - North 5.8 mph - N/A   Clear
1:00 AM 78.8 °F - 55.4 °F 44% 29.86 in - North 4.6 mph - N/A   Clear
2:00 AM 78.8 °F - 57.2 °F 47% 29.86 in - North 9.2 mph - N/A   Clear
3:00 AM 78.8 °F - 59.0 °F 51% 29.86 in - North 9.2 mph - N/A   Clear
4:00 AM 77.0 °F - 57.2 °F 50% 29.86 in - NNW 4.6 mph - N/A   Clear
5:00 AM 77.0 °F - 59.0 °F 54% 29.86 in - North 6.9 mph - N/A   Clear
6:00 AM 77.0 °F - 60.8 °F 57% 29.89 in - North 5.8 mph - N/A   Clear
7:00 AM 80.6 °F 81.5 °F 60.8 °F 51% 29.89 in - North 8.1 mph - N/A   Clear
8:00 AM 84.2 °F 84.4 °F 60.8 °F 45% 29.89 in - North 12.7 mph - N/A   Clear
9:00 AM 89.6 °F - 50.0 °F 26% 29.89 in - North 9.2 mph - N/A   Clear
11:00 AM 93.2 °F 90.8 °F 53.6 °F 26% 29.86 in - NE 10.4 mph - N/A   Clear
12:00 PM 93.2 °F - 50.0 °F 23% 29.86 in - NE 9.2 mph - N/A   Clear
1:00 PM 95.0 °F - 51.8 °F 23% 29.86 in - NE 8.1 mph - N/A   Clear
2:00 PM 95.0 °F 92.7 °F 53.6 °F 25% 29.83 in - NE 8.1 mph - N/A   Clear
3:00 PM 95.0 °F - 51.8 °F 23% 29.83 in - NNE 5.8 mph - N/A   Clear
4:00 PM 93.2 °F - 50.0 °F 23% 29.83 in - NNE 4.6 mph - N/A   Clear
5:00 PM 89.6 °F - 51.8 °F 27% 29.83 in - NNE 4.6 mph - N/A   Clear
6:00 PM 84.2 °F - 50.0 °F 30% 29.83 in - NNE 3.5 mph - N/A   Clear
7:00 PM 82.4 °F - 50.0 °F 32% 29.86 in - NNE 2.3 mph - N/A   Clear
8:00 PM 80.6 °F - 46.4 °F 30% 29.86 in - NNW 2.3 mph - N/A   Clear
9:00 PM 80.6 °F - 44.6 °F 28% 29.89 in - WNW 2.3 mph - N/A   Clear
10:00 PM 82.4 °F - 46.4 °F 28% 29.86 in - South 2.3 mph - N/A   Clear
11:00 PM 78.8 °F - 46.4 °F 32% 29.86 in - West 2.3 mph - N/A   Clear